• Processing (Info)

  • MPEC 2014-U12 : 2014 TX57

    The following Minor Planet Electronic Circular may be linked-to from your own Web pages, but must not otherwise be redistributed electronically.

    A form allowing access to any MPEC is at the bottom of this page.


    Read MPEC 2014-U11 Read MPEC 2014-U13


    M.P.E.C. 2014-U12                                Issued 2014 Oct. 17, 23:06 UT
    
         The Minor Planet Electronic Circulars contain information on unusual
             minor planets and routine data on comets.  They are published
       on behalf of Commission 20 of the International Astronomical Union by the
              Minor Planet Center, Smithsonian Astrophysical Observatory,
                              Cambridge, MA 02138, U.S.A.
    
                 Prepared using the Tamkin Foundation Computer Network
    
                                  MPC@CFA.HARVARD.EDU
                URL https://www.minorplanetcenter.net/    ISSN 1523-6714
    
                                       2014 TX57
    
    Observations:
         K14T57X  C2014 10 07.34686 00 56 29.138+40 09 30.56         19.9 iLEU012F51
         K14T57X  C2014 10 07.35883 00 56 29.232+40 09 35.32         19.9 iLEU012F51
         K14T57X  C2014 10 07.37079 00 56 29.330+40 09 39.89         20.1 iLEU012F51
         K14T57X  C2014 10 07.38284 00 56 29.431+40 09 44.33         20.0 iLEU012F51
         K14T57X* C2014 10 15.16492 00 59 56.09 +40 29 40.2          20.2 RoEU012926
         K14T57X  C2014 10 15.18308 00 59 56.48 +40 29 40.0          19.8 RoEU012926
         K14T57X  C2014 10 15.20123 00 59 56.84 +40 29 40.2          19.8 RoEU012926
         K14T57X  C2014 10 17.14917 01 01 07.33 +40 25 46.3          19.8 RoEU012926
         K14T57X  C2014 10 17.15662 01 01 07.54 +40 25 45.5          19.9 RoEU012926
         K14T57X  C2014 10 17.16626 01 01 07.79 +40 25 44.6          19.8 RoEU012926
         K14T57X  C2014 10 17.17373 01 01 07.98 +40 25 43.8          19.9 RoEU012926
         K14T57X  C2014 10 17.18331 01 01 08.22 +40 25 42.9          19.7 RoEU012926
         K14T57X  C2014 10 17.19080 01 01 08.39 +40 25 41.9          19.8 RoEU012926
         K14T57X KC2014 10 17.19249 01 01 07.74 +40 25 39.1          19.4 RqEU012H36
         K14T57X KC2014 10 17.20273 01 01 07.97 +40 25 37.4          19.6 RqEU012H36
         K14T57X KC2014 10 17.22175 01 01 08.43 +40 25 34.3          19.5 RqEU012H36
         K14T57X KC2014 10 17.26549 01 01 09.13 +40 25 24.8                qEU012H21
         K14T57X KC2014 10 17.26890 01 01 09.20 +40 25 23.8          19.8 VqEU012H21
         K14T57X KC2014 10 17.89321 01 01 35.62 +40 23 08.5          21.3 VqEU012C77
         K14T57X KC2014 10 17.92580 01 01 36.53 +40 23 01.5          19.2 VqEU012C77
         K14T57X KC2014 10 17.94301 01 01 36.96 +40 22 57.6          20.1 VqEU012C77
    
    Observer details:
    926 Tenagra II Observatory.  Observers M. Schwartz, P. R. Holvorcem.  0.41-m
        f/3.75 astrograph + CCD, 0.81-m f/7 Ritchey-Chretien + CCD.
    C77 Bernezzo Observatory.  Observer A. Mantero.  0.25-m f/4 reflector + CCD.
    F51 Pan-STARRS 1, Haleakala.  Observers N. Primak, A. Schultz, T. Goggia,
        M. Willman.  Measurer P. Veres.  1.8-m Ritchey-Chretien + CCD.
    H21 Astronomical Research Observatory, Westfield.  Observer R. Holmes.
        Measurers L. Buzzi, S. Foglia, T. Vorobjov, T. Linder.  0.61-m f/4.0
        astrograph + CCD.
    H36 Sandlot Observatory, Scranton.  Observer G. Hug.  0.56-m reflector + CCD.
    
    Orbital elements:
    2014 TX57                                                Earth MOID = 0.0701 AU
    Epoch 2014 Dec. 9.0 TT = JDT 2457000.5                  MPC
    M 357.92617              (2000.0)            P               Q
    n   0.38657330     Peri.  208.10274     +0.12738232     -0.97769688
    a   1.8663001      Node   235.04642     +0.94391218     +0.17120247
    e   0.4474602      Incl.   11.75518     +0.30463672     -0.12164916
    P   2.55           H   21.3           G   0.15           U   6
    Residuals in seconds of arc
    141007 F51  0.0   0.1-    141017 926  0.1-  0.2+    141017 H36  0.1-  0.2-
    141007 F51  0.1-  0.0     141017 926  0.0   0.1+    141017 H36  0.1+  0.1-
    141007 F51  0.0   0.0     141017 926  0.0   0.2+    141017 H21  0.0   0.1-
    141007 F51  0.1+  0.0     141017 926  0.0   0.1+    141017 H21  0.1-  0.3-
    141015 926  0.0   0.3+    141017 926  0.0   0.3+    141017 C77  0.1-  0.1+
    141015 926  0.1+  0.3-    141017 926  0.2-  0.2+    141017 C77  0.4+  0.1-
    141015 926  0.1+  0.2-    141017 H36  0.1+  0.1-    141017 C77  0.1+  0.1-
    
    Ephemeris:
    2014 TX57                a,e,i = 1.87, 0.45, 12                  q = 1.0312
    Date    TT    R. A. (2000) Decl.     Delta      r     Elong.  Phase     V
    2014 09 17    00 49 19.6 +36 27 02   0.4706  1.3897   137.6    29.2    21.7
    ...
    2014 10 02    00 54 41.9 +39 30 03   0.3490  1.2983   143.5    27.3    20.8
    ...
    2014 10 10    00 57 28.3 +40 21 53   0.2921  1.2518   146.1    26.4    20.3
    ...
    2014 10 16    01 00 23.0 +40 28 32   0.2526  1.2183   147.8    25.8    19.9
    2014 10 17    01 00 59.6 +40 26 13   0.2463  1.2129   148.1    25.7    19.9
    2014 10 18    01 01 39.2 +40 22 47   0.2401  1.2076   148.4    25.6    19.8
    ...
    2014 10 24    01 06 54.4 +39 34 42   0.2041  1.1764   150.2    24.8    19.4
    ...
    2014 11 01    01 19 18.2 +36 51 19   0.1603  1.1381   153.2    23.1    18.7
    ...
    2014 11 16    02 14 21.6 +21 06 17   0.09375 1.0793   163.5    15.1    17.2
    
    A. U. Tomatic                (C) Copyright 2014 MPC           M.P.E.C. 2014-U12
    

    Read MPEC 2014-U11 Read MPEC 2014-U13


    MPEC number:

    Enter an MPEC number in one of the following forms:

    • 1997-B01 (the full form)
    • J97B01 (the packed version of the full form)
    • B01 (the abbreviated form)